TimeAKDT,TemperatureF,Dew PointF,Humidity,Sea Level PressureIn,VisibilityMPH,Wind Direction,Wind SpeedMPH,Gust SpeedMPH,PrecipitationIn,Events,Conditions,WindDirDegrees,DateUTC
12:53 AM,44.1,37.9,79,29.26,10.0,ENE,10.4,-,N/A,,Mostly Cloudy,70,2013-09-27 08:53:00
1:53 AM,43.0,37.0,80,29.24,10.0,ENE,9.2,-,N/A,,Clear,70,2013-09-27 09:53:00
2:53 AM,44.1,36.0,73,29.21,10.0,ENE,12.7,21.9,N/A,,Clear,70,2013-09-27 10:53:00
3:53 AM,44.1,35.1,71,29.19,10.0,East,11.5,-,N/A,,Clear,80,2013-09-27 11:53:00
4:53 AM,44.1,35.1,71,29.17,10.0,ENE,12.7,-,N/A,,Overcast,70,2013-09-27 12:53:00
5:53 AM,44.1,34.0,68,29.17,10.0,East,11.5,-,N/A,,Overcast,80,2013-09-27 13:53:00
6:53 AM,45.0,34.0,65,29.15,10.0,East,11.5,20.7,N/A,,Scattered Clouds,80,2013-09-27 14:53:00
7:53 AM,46.0,33.1,61,29.15,10.0,ENE,12.7,21.9,N/A,,Clear,70,2013-09-27 15:53:00
8:53 AM,45.0,33.1,63,29.15,10.0,East,11.5,-,N/A,,Overcast,80,2013-09-27 16:53:00
9:53 AM,45.0,33.1,63,29.16,10.0,ENE,9.2,-,N/A,,Overcast,60,2013-09-27 17:53:00
10:53 AM,46.0,33.1,61,29.16,10.0,ENE,11.5,-,N/A,,Clear,70,2013-09-27 18:53:00
11:53 AM,50.0,34.0,54,29.16,10.0,ENE,13.8,-,N/A,,Clear,70,2013-09-27 19:53:00
12:53 PM,51.1,34.0,52,29.15,10.0,ENE,11.5,20.7,N/A,,Clear,60,2013-09-27 20:53:00
1:53 PM,53.1,34.0,48,29.16,10.0,East,10.4,16.1,N/A,,Clear,90,2013-09-27 21:53:00
2:53 PM,55.0,34.0,45,29.16,10.0,ENE,8.1,-,N/A,,Clear,60,2013-09-27 22:53:00
3:53 PM,55.0,33.1,43,29.16,10.0,NE,6.9,-,N/A,,Clear,40,2013-09-27 23:53:00
4:53 PM,55.9,33.1,42,29.16,10.0,Variable,5.8,-,N/A,,Clear,0,2013-09-28 00:53:00
5:53 PM,52.0,36.0,54,29.17,10.0,NNW,6.9,-,N/A,,Clear,330,2013-09-28 01:53:00
6:53 PM,48.0,35.1,61,29.18,10.0,NW,9.2,-,N/A,,Clear,320,2013-09-28 02:53:00
7:53 PM,45.0,34.0,65,29.20,10.0,NW,5.8,-,N/A,,Mostly Cloudy,320,2013-09-28 03:53:00
8:53 PM,43.0,34.0,71,29.21,10.0,NNW,6.9,-,N/A,,Overcast,330,2013-09-28 04:53:00
9:53 PM,42.1,33.1,70,29.23,10.0,NW,5.8,-,N/A,,Overcast,320,2013-09-28 05:53:00
10:53 PM,39.0,33.1,79,29.24,10.0,Calm,Calm,-,N/A,,Overcast,0,2013-09-28 06:53:00
11:53 PM,39.9,33.1,77,29.25,10.0,NW,5.8,-,N/A,,Clear,320,2013-09-28 07:53:00